Location: Mount Kobau Star Party
(49.1167°N, 119.7333°W)
Time: 11:22:07
(UTC-07:00)

BlueWalker 3 - Pass Details

Date: 25 February 2024
Orbit: 485 x 496 km, 53.2° (Epoch: 11 April)

Event Time Altitude Azimuth Distance (km) Brightness Sun altitude
Rises 18:12:36 0° 271° (W) 2,554 8.0 -6.9°
Reaches altitude 10° 18:14:50 10° 278° (W) 1,672 6.2 -7.2°
Maximum altitude 18:18:28 46° 352° (N) 666 2.6 -7.8°
Drops below altitude 10° 18:22:07 10° 67° (ENE) 1,669 4.0 -8.4°
Enters shadow 18:22:08 10° 67° (ENE) 1,676 4.0 -8.4°
